Jack Northrop Field Hawthorne Municipal Airport
KHHR : now visible

Airfield :











YOU CAN JOIN US ON...

 
LOGIN :

Register | Disclaimer

   EN    FR    IT 

 









Legend :    VFR   Marginal VFR   IFR   Intensive IFR   Very Intensive IFR
Visi :
Ceiling :
>= 8 km
>= 3000ft
5 to 8 km
1000 to 3000 ft
1500m to 5 km
500 to 1000 ft
800 to 1500m
200 to 500 ft
< 800m
< 200 ft
Symbols :   Thunderstorms  Fog  Heavy snow  Heavy precipitations  Wind > 20 kt






- Airport Elevation : 66 ft


KHHR - Jack Northrop Field Hawthorne Municipal

CURRENT METAR :
  • 170553Z 00000KT 10SM SCT050 OVC060 17/09 A3005 RMK AO2 SLP175 T01720089 10211 20172 51004

EXPIRED METARs :
  • 170453Z 00000KT 10SM OVC075 18/06 A3005 RMK AO2 SLP175 T01780061
  • 170353Z 00000KT 10SM BKN080 18/04 A3004 RMK AO2 SLP173 T01780044

TAF N/A
KZLA FIR / North America



MET'MAP, your aeronautical weather chart ! - Copyright ORBIFLY December 2007 - Disclaimer

ORBIFLY MET'MAP TEAM :

Programming & Development : Alexandra Zaïnal
Concept & original design : Baudouin d'Aumeries
Assistance for programming : Marc-Olivier Méhu
Technical & hardware support : Manuel Goepfert

Contact : metmap@orbifly.com




SOURCES & CREDITS :

   NOAA       Earth
Advisory